Location: Bruderhein
(53.8035°N, 112.9265°W)
Time: 08:20:24
(UTC+00:00)

Envisat - Pass Details

Date: 24 May 2024
Orbit: 762 x 764 km, 98.3° (Epoch: 13 June)

Event Time Altitude Azimuth Distance (km) Brightness Sun altitude
Rises 09:13:58 0° 29° (NNE) 3,241 8.4 -11.9°
Reaches altitude 10° 09:17:55 10° 60° (ENE) 2,307 6.4 -11.7°
Maximum altitude 09:19:52 12° 83° (E) 2,158 5.8 -11.5°
Drops below altitude 10° 09:21:50 10° 106° (ESE) 2,300 5.6 -11.4°
Sets 09:25:43 0° 136° (SE) 3,219 6.0 -11.2°
